Regional Weather Roundup
Issued by NWS Charleston, SC

Current Version | Previous Version | Text Only | Print | Product List | Glossary Off
Versions: 1 2 3 4 5 6 7 8 9 10 11 12 13 14 15 16 17 18 19 20 21 22 23 24 25 26 27 28 29 30 31 32 33 34 35 36 37 38 39 40 41 42 43 44 45 46 47 48 49 50

000
ASUS42 KCHS 230912
RWRCHS

REGIONAL WEATHER ROUNDUP
NATIONAL WEATHER SERVICE CHARLESTON SC
400 AM EST THU NOV 23 2017

NOTE: "FAIR" INDICATES FEW OR NO CLOUDS BELOW 12,000 FEET WITH NO
SIGNIFICANT WEATHER AND/OR OBSTRUCTIONS TO VISIBILITY.

NOT ALL STATIONS ARE QUALITY CONTROLLED. USE DATA WITH CAUTION...
ESPECIALLY DEWPOINT OBSERVATIONS.

SCZ027-030-031-034>040-042>050-231000-
...SOUTHEAST SOUTH CAROLINA...

CITY           SKY/WX    TMP DP  RH WIND       PRES   REMARKS
N CHARLESTON   CLOUDY    51  38  60 NE12      30.06S
WATERFRONT PRK NOT AVBL
JOHNS ISLAND   FAIR      54  41  62 N8        30.06S
PINOPOLIS        N/A     52  39  62 NE10      30.00S
MONCKS CORNER  FAIR      48  32  53 N8        30.08S
SUMMERVILLE    FAIR      48  37  66 N5        30.08F
BEAUFORT MCAS  CLOUDY    55  44  66 NE12      30.04F
BEAUFORT ARPT  FAIR      54  45  71 NE13      30.04S
HILTON HEAD IS MOCLDY    57  45  62 NE10      30.04S
WALTERBORO     CLOUDY    50  36  57 NE9       30.07F
ALLENDALE      FAIR      52  39  62 NE7       30.06S

...SOUTHERN MIDLANDS AND PEE DEE...

CITY           SKY/WX    TMP DP  RH WIND       PRES   REMARKS
GEORGETOWN     FAIR      46  36  66 N7        30.08S
KINGSTREE      FAIR      45  32  61 N3        30.10R
ORANGEBURG     CLOUDY    48  33  56 NE7       30.10R
BARNWELL         N/A     52  39  62 NE8       30.08S
AIKEN          FAIR      46  32  57 NE9       30.11F
MANNING        FAIR      46  34  61 MISG      30.10S
COLUMBIA       PTCLDY    49  29  46 NE6       30.10F
SUMTER         CLOUDY    45  30  55 NE5       30.09S
FLORENCE       CLOUDY    44  31  60 N8        30.11S
MYRTLE BEACH   CLOUDY    47  38  71 NE14      30.09S
N MYRTLE BEACH CLEAR     47  38  71 NE15G22   30.08S

$$

GAZ063-065-086>088-099>101-113>116-118-119-134>141-150-231000-
...SOUTHEAST GEORGIA...

CITY           SKY/WX    TMP DP  RH WIND       PRES   REMARKS
SAVANNAH ARPT  CLOUDY    56  46  69 NE9       30.03S
HUNTER AAF     CLOUDY    57  47  69 NE7       30.00S
FORT STEWART   CLOUDY    57  49  75 NE7       30.00F
STATESBORO     LGT RAIN  55  42  60 NE3       30.05R
SYLVANIA       CLOUDY    55  45  71 E8        30.06R
CLAXTON        FAIR      58  48  70 N6        30.03F

...CSRA...CENTRAL AND FAR SOUTHEAST GEORGIA...

CITY           SKY/WX    TMP DP  RH WIND       PRES   REMARKS
THOMSON        CLOUDY    50  40  67 E8        30.13F
AUGUSTA-BUSH   CLOUDY    52  36  54 NE6       30.08S
AUGUSTA-DANIEL CLOUDY    53  33  46 NE10      30.08S
SWAINSBORO     CLOUDY    55  45  67 E9        30.05F
VIDALIA        LGT RAIN  55  52  88 NE6       30.04R
EASTMAN        CLOUDY    58  46  64 E6        30.05F
HAZLEHURST     DRIZZLE   59  57  95 NE5       30.01S
ALMA           CLOUDY    60  58  92 CALM      29.99F FOG
WAYCROSS       RAIN      60  57  91 CALM      30.00R
JESUP          DRIZZLE   61  55  82 CALM      30.00F
BAXLEY         DRIZZLE   55  55 100 NE7       30.00F
BRUNSWICK      CLOUDY    61  57  88 NE6       29.99F
SAINT SIMONS   CLOUDY    63  61  93 N9        29.98F

$$

SCZ027-028-034-036>038-045-046-048>050-GAZ119-141-231000-
...LAKE AND SUPPLEMENTAL COASTAL OBSERVATIONS...

STATION/POSITION TIME  TEMP    WIND        PRES    WAVE   SWELL
                       AIR SEA DIR/SP/G            HT/PER HT/PER/DIR
                 (UTC) (F)     (DEG/KT/KT) (MB)    (FT/S) (FT/S/D)
WINYAH BAY       0745   51      30/  7     1018.0
LAKE MURRAY      0820   48      30/  4/  8 1019.0
ACE BASIN NERRS  0745   53      10/  1     1017.0
FORT PULASKI     0842   59 61   40/ 10/ 13 1017.0F
SAPELO ISLAND    0800   60      20/  5     1016.0

$$

ANZ835-935-AMZ111-154-330-350-352-354-370-450-454-472-231000-
...C-MAN AND BUOY OBSERVATIONS...

STATION/POSITION TIME  TEMP    WIND        PRES    WAVE   SWELL
                       AIR SEA DIR/SP/G            HT/PER HT/PER/DIR
                 (UTC) (F)     (DEG/KT/KT) (MB)    (FT/S) (FT/S/D)
BUOY 41004       0850   65 75   40/ 17/ 21 1016.0R   5/ 6   3/100/ 9
BUOY 41008       0850   66 67   50/ 16/ 17 1014.9F   3/ 9   3/110/ 9
FOLLY BEACH CMAN 0800   56      10/ 14/ 16 1018.0R
CAPERS NEARSHORE 0808   54 62   40/ 19/ 25 1016.8S
FRIPP NEARSHORE  0808   58 62   50/ 14/ 23 1015.9F


STATION/POSITION TIME  TEMP    WIND        PRES    WAVE   SWELL
                       AIR SEA DIR/SP/G            HT/PER HT/PER/DIR
                 (UTC) (F)     (DEG/KT/KT) (MB)    (FT/S) (FT/S/D)
5E ST. MARYS GA  0830      66                N/A     3/ 9
FRYING PAN BUOY  0850   62 72   30/ 19/ 25 1016.7F   6/ 8   3/120/ 8
BUOY 41025       0850   56 71   10/ 17/ 23 1018.3F   7/ 9   5/120/ 9
CAPE LOOKOUT NC  0800           10/ 14/ 16 1019.2F
BUOY 41002       0850   72 76   30/ 17/ 21 1013.9F   6/ 9   5/120/ 9
BUOY 41010       NOT AVBL
ST AUGUSTINE FL  0900   69 69   30/ 17/ 18 1013.3F


$$




USA.gov is the U.S. government's official web portal to all federal, state and local government web resources and services.